Faro, Portugal

8:26 AM WET on November 21, 2019 (GMT +0000)
Faro

Weather History for LPFR - September, 2019

Change the Weather History Date:

Saturday, September 7, 2019

  Actual Average Record
Temperature  
Mean Temperature 79 °F -  
Max Temperature 85 °F 76 °F 89 °F (1996)
Min Temperature 73 °F 62 °F 60 °F (2001)
Cooling Degree Days 14    
Growing Degree Days 29 (Base 50)    
Moisture  
Dew Point 65 °F    
Average Humidity 62    
Maximum Humidity 78    
Minimum Humidity 40    
Precipitation  
Precipitation 0.00 in 0.03 in - ()
Sea Level Pressure  
Sea Level Pressure 29.97 in    
Wind  
Wind Speed 7 mph ()    
Max Wind Speed 20 mph    
Max Gust Speed -    
Visibility 8.8 miles    
Events      
Averages and records for this station are not official NWS values.
T = Trace of Precipitation, MM = Missing Value Source: Averaged Metar Reports

Daily Weather History Graph

Daily Weather History Graph

Search for Another Location

Airport or City:

Astronomy

Sep. 07, 2019 Rise Set
Actual Time 7:07 AM WEST 7:52 PM WEST
Civil Twilight 6:40 AM WEST 8:18 PM WEST
Nautical Twilight 6:09 AM WEST 8:49 PM WEST
Astronomical Twilight 5:37 AM WEST 9:21 PM WEST
Moon 3:48 PM WEST (9/7) 12:55 AM WEST (9/7)
Length of Visible Light 13h 37m
Length of Day
12h 44m
Waxing Gibbous, 63% of the Moon is Illuminated
Sep 7
Waxing Gibbous
Sep 14
Full
Sep 22
Last Quarter
Sep 28
New
Oct 5
First Quarter

Hourly Weather History & Observations

Time (WEST) Temp. Heat Index Dew Point Humidity Pressure Visibility Wind Dir Wind Speed Gust Speed Precip Events Conditions
12:00 AM 77 °F - 65 °F 57% 29.97 in - West 6.7 mph - -  
12:00 AM 77.0 °F - 64.4 °F 65% 29.95 in - WSW 6.9 mph - N/A   Clear
12:30 AM 77.0 °F - 64.4 °F 65% 29.95 in - West 6.9 mph - N/A   Clear
1:00 AM 76 °F - 60 °F 48% 29.97 in 12 mi NNW 2.2 mph - -   Clear
1:00 AM 77.0 °F - 60.8 °F 57% 29.95 in - North 4.6 mph - N/A   Clear
1:30 AM 75.2 °F - 60.8 °F 61% 29.95 in - NE 5.8 mph - N/A   Clear
2:00 AM 75 °F - 63 °F 57% 29.97 in - NE 2.2 mph - -  
2:00 AM 75.2 °F - 59.0 °F 57% 29.95 in - NNE 3.5 mph - N/A   Clear
2:30 AM 73.4 °F - 64.4 °F 73% 29.95 in - ENE 4.6 mph - N/A   Clear
3:30 AM 73.4 °F - 66.2 °F 78% 29.95 in - East 9.2 mph - N/A   Clear
4:00 AM 75 °F - 68 °F 72% 29.96 in 12 mi ENE 4.5 mph - -   Clear
4:00 AM 75.2 °F - 68.0 °F 78% 29.95 in - ENE 4.6 mph - N/A   Clear
4:30 AM 73.4 °F - 66.2 °F 78% 29.95 in - ENE 5.8 mph - N/A   Clear
5:00 AM 75 °F - 63 °F 59% 29.96 in - ENE 6.7 mph - -  
5:00 AM 73.4 °F - 64.4 °F 73% 29.92 in - NE 6.9 mph - N/A   Clear
5:30 AM 73.4 °F - 64.4 °F 73% 29.92 in - NE 5.8 mph - N/A   Clear
6:00 AM 74 °F - 62 °F 57% 29.96 in - ENE 6.7 mph - -  
6:00 AM 73.4 °F - 62.6 °F 69% 29.95 in - NNE 6.9 mph - N/A   Clear
6:30 AM 73.4 °F - 62.6 °F 69% 29.95 in - NE 5.8 mph - N/A   Clear
7:00 AM 74 °F - 62 °F 56% 29.98 in 12 mi ENE 6.7 mph - -   Clear
7:00 AM 73.4 °F - 62.6 °F 69% 29.95 in - ENE 8.1 mph - N/A   Clear
7:30 AM 75.2 °F - 64.4 °F 69% 29.95 in - ENE 9.2 mph - N/A   Clear
8:00 AM 75 °F - 67 °F 68% 29.99 in - ENE 8.9 mph - -  
8:00 AM 75.2 °F - 66.2 °F 73% 29.98 in - ENE 8.1 mph - N/A   Clear
8:30 AM 75.2 °F - 68.0 °F 78% 29.95 in - ENE 9.2 mph - N/A   Clear
9:00 AM 77.0 °F - 68.0 °F 74% 29.98 in - East 16.1 mph - N/A   Clear
9:30 AM 78.8 °F - 68.0 °F 69% 29.98 in - East 15.0 mph - N/A   Clear
10:00 AM 80 °F - 68 °F 58% 30.00 in 16 mi East 17.9 mph - -   Clear
10:00 AM 78.8 °F - 68.0 °F 69% 29.98 in - East 18.4 mph - N/A   Clear
10:30 AM 80.6 °F 82.7 °F 66.2 °F 61% 29.98 in - East 19.6 mph - N/A   Clear
11:00 AM 78.8 °F - 66.2 °F 65% 29.98 in - East 17.3 mph - N/A   Clear
11:30 AM 80.6 °F 82.3 °F 64.4 °F 58% 29.98 in - East 17.3 mph - N/A   Clear
12:00 PM 80.6 °F 82.3 °F 64.4 °F 58% 29.98 in - East 17.3 mph - N/A   Clear
12:30 PM 80.6 °F 82.7 °F 66.2 °F 61% 29.98 in - East 17.3 mph - N/A   Clear
1:00 PM 83 °F - 64 °F 44% 29.99 in 16 mi ESE 17.9 mph - -   Clear
1:00 PM 82.4 °F 83.9 °F 64.4 °F 54% 29.98 in - East 17.3 mph - N/A   Clear
1:30 PM 82.4 °F 83.4 °F 62.6 °F 51% 29.98 in - East 16.1 mph - N/A   Clear
2:00 PM 83 °F - 63 °F 40% 29.99 in - ESE 15.7 mph - -  
2:00 PM 82.4 °F 83.4 °F 62.6 °F 51% 29.98 in - ESE 15.0 mph - N/A   Clear
2:30 PM 84.2 °F 85.0 °F 62.6 °F 48% 29.95 in 6.2 mi East 15.0 mph - N/A   Partly Cloudy
3:00 PM 84 °F - 64 °F 42% 29.98 in - ESE 15.7 mph - -  
3:00 PM 82.4 °F 83.9 °F 64.4 °F 54% 29.95 in 6.2 mi East 13.8 mph - N/A   Partly Cloudy
3:30 PM 80.6 °F 82.3 °F 64.4 °F 58% 29.95 in 6.2 mi ESE 13.8 mph - N/A   Partly Cloudy
4:00 PM 83 °F - 66 °F 48% 29.97 in 12 mi ESE 11.2 mph - -   Scattered Clouds
4:00 PM 82.4 °F 83.9 °F 64.4 °F 54% 29.95 in 6.2 mi ESE 11.5 mph - N/A   Partly Cloudy
4:30 PM 82.4 °F 83.9 °F 64.4 °F 54% 29.95 in 6.2 mi East 11.5 mph - N/A   Partly Cloudy
5:00 PM 83 °F - 67 °F 49% 29.96 in - ESE 11.2 mph - -  
5:00 PM 82.4 °F 84.6 °F 66.2 °F 58% 29.95 in 6.2 mi East 11.5 mph - N/A   Partly Cloudy
5:30 PM 82.4 °F 84.6 °F 66.2 °F 58% 29.95 in 6.2 mi SE 10.4 mph - N/A   Partly Cloudy
6:00 PM 81 °F - 67 °F 53% 29.96 in - ESE 6.7 mph - -  
6:00 PM 80.6 °F 82.7 °F 66.2 °F 61% 29.95 in 6.2 mi ESE 8.1 mph - N/A   Partly Cloudy
6:30 PM 80.6 °F 82.7 °F 66.2 °F 61% 29.95 in 6.2 mi SSE 4.6 mph - N/A   Partly Cloudy
7:00 PM 79 °F - 67 °F 59% 29.96 in 12 mi North 1.2 mph - -   Scattered Clouds
7:00 PM 78.8 °F - 66.2 °F 65% 29.95 in 6.2 mi SSE 5.8 mph - N/A   Partly Cloudy
7:30 PM 78.8 °F - 66.2 °F 65% 29.95 in 6.2 mi SSW 3.5 mph - N/A   Partly Cloudy
8:00 PM 77 °F - 67 °F 64% 29.98 in - North 2.2 mph - -  
8:00 PM 77.0 °F - 66.2 °F 69% 29.95 in 6.2 mi Variable 2.3 mph - N/A   Partly Cloudy
8:30 PM 77.0 °F - 66.2 °F 69% 29.95 in 6.2 mi Variable 1.2 mph - N/A   Partly Cloudy
9:00 PM 77 °F - 67 °F 63% 29.99 in - Calm Calm - -  
9:00 PM 77.0 °F - 66.2 °F 69% 29.98 in - Variable 1.2 mph - N/A   Clear
9:30 PM 77.0 °F - 66.2 °F 69% 29.98 in - Variable 1.2 mph - N/A   Clear
10:00 PM 76 °F - 67 °F 65% 30.01 in 12 mi Calm Calm - -   Clear
10:00 PM 77.0 °F - 66.2 °F 69% 29.98 in - Calm Calm - N/A   Clear
10:30 PM 77.0 °F - 66.2 °F 69% 29.98 in - NNE 3.5 mph - N/A   Clear
11:00 PM 77 °F - 66 °F 61% 30.02 in - NNE 2.2 mph - -  
11:00 PM 77.0 °F - 66.2 °F 69% 30.01 in - NNE 4.6 mph - N/A   Clear
11:30 PM 75.2 °F - 66.2 °F 73% 30.01 in - North 4.6 mph - N/A   Clear